When you browse on this site, cookies collect data to enhance your experience and personalize the content and advertising you see.
Visit our Privacy Policy to learn more. By continuing to use the site, you agree to this use of cookies and data.
  • In Österreich
  • Länderverzeichnis
  • Für 7 Tage
  • Wassertemperatur
  • Satellitenkarten
  • Wetterkarte
  • News
  • Widgets
  • user-avatar
    Anmelden

    Stündliche Wetter Durres

    Heute, 19 März, Dienstag

    Zeit Temperatur Niederschläge Wind Luftdruck Luftfeuchtigkeit
    00:00 +11°C° 0 mm 3 m/S 761 mmHg 88%
    01:00 +11°C° 0 mm 3 m/S 761 mmHg 88%
    02:00 +11°C° 0 mm 3 m/S 761 mmHg 87%
    03:00 +10°C° 0 mm 3 m/S 761 mmHg 87%
    04:00 +10°C° 0 mm 3 m/S 761 mmHg 87%
    05:00 +12°C° 0 mm 2 m/S 761 mmHg 84%
    06:00 +12°C° 0 mm 2 m/S 761 mmHg 81%
    07:00 +13°C° 0 mm 2 m/S 761 mmHg 78%
    08:00 +15°C° 0 mm 2 m/S 761 mmHg 69%
    09:00 +18°C° 0 mm 1 m/S 761 mmHg 61%
    10:00 +20°C° 0 mm 1 m/S 761 mmHg 52%
    11:00 +20°C° 0 mm 1 m/S 761 mmHg 51%
    12:00 +20°C° 0 mm 2 m/S 761 mmHg 49%
    13:00 +20°C° 0 mm 2 m/S 761 mmHg 48%
    14:00 +20°C° 0 mm 2 m/S 761 mmHg 52%
    15:00 +19°C° 0 mm 2 m/S 761 mmHg 57%
    16:00 +18°C° 0 mm 2 m/S 761 mmHg 61%
    17:00 +17°C° 0 mm 2 m/S 761 mmHg 68%
    18:00 +15°C° 0 mm 2 m/S 761 mmHg 74%
    19:00 +14°C° 0 mm 1 m/S 762 mmHg 81%
    20:00 +14°C° 0 mm 1 m/S 762 mmHg 80%
    21:00 +13°C° 0 mm 2 m/S 763 mmHg 79%
    22:00 +13°C° 0 mm 2 m/S 763 mmHg 78%
    23:00 +13°C° 0 mm 2 m/S 763 mmHg 77%

    Morgen, 20 März, Mittwoch

    Zeit Temperatur Niederschläge Wind Luftdruck Luftfeuchtigkeit
    00:00 +12°C° 0 mm 3 m/S 764 mmHg 77%
    01:00 +12°C° 0 mm 3 m/S 764 mmHg 77%
    02:00 +12°C° 0 mm 3 m/S 764 mmHg 76%
    03:00 +11°C° 0 mm 3 m/S 764 mmHg 75%
    04:00 +11°C° 0 mm 3 m/S 764 mmHg 74%
    05:00 +12°C° 0 mm 3 m/S 764 mmHg 72%
    06:00 +12°C° 0 mm 3 m/S 764 mmHg 70%
    07:00 +13°C° 0 mm 3 m/S 765 mmHg 69%
    08:00 +16°C° 0 mm 3 m/S 765 mmHg 60%
    09:00 +18°C° 0 mm 4 m/S 765 mmHg 51%
    10:00 +21°C° 0 mm 4 m/S 765 mmHg 43%
    11:00 +22°C° 0 mm 5 m/S 765 mmHg 39%
    12:00 +23°C° 0 mm 5 m/S 765 mmHg 36%
    13:00 +24°C° 0 mm 6 m/S 765 mmHg 33%
    14:00 +24°C° 0 mm 7 m/S 765 mmHg 34%
    15:00 +23°C° 0 mm 7 m/S 764 mmHg 35%
    16:00 +23°C° 0 mm 8 m/S 764 mmHg 36%
    17:00 +21°C° 0 mm 8 m/S 765 mmHg 40%
    18:00 +18°C° 0 mm 8 m/S 765 mmHg 45%
    19:00 +16°C° 0 mm 8 m/S 766 mmHg 50%
    20:00 +16°C° 0 mm 7 m/S 766 mmHg 49%
    21:00 +15°C° 0 mm 7 m/S 767 mmHg 49%
    22:00 +15°C° 0 mm 6 m/S 767 mmHg 49%
    23:00 +14°C° 0 mm 6 m/S 767 mmHg 51%

    übermorgen, 21 März, Donnerstag

    Zeit Temperatur Niederschläge Wind Luftdruck Luftfeuchtigkeit
    00:00 +14°C° 0 mm 6 m/S 767 mmHg 53%
    01:00 +13°C° 0 mm 6 m/S 767 mmHg 55%
    02:00 +13°C° 0 mm 6 m/S 767 mmHg 57%
    03:00 +11°C° 0 mm 6 m/S 767 mmHg 58%
    04:00 +11°C° 0 mm 6 m/S 767 mmHg 60%
    05:00 +11°C° 0 mm 6 m/S 768 mmHg 60%
    06:00 +12°C° 0 mm 5 m/S 768 mmHg 60%
    07:00 +13°C° 0 mm 5 m/S 768 mmHg 61%
    08:00 +15°C° 0 mm 5 m/S 768 mmHg 54%
    09:00 +17°C° 0 mm 5 m/S 768 mmHg 47%
    10:00 +21°C° 0 mm 5 m/S 768 mmHg 40%
    11:00 +21°C° 0 mm 5 m/S 768 mmHg 38%
    12:00 +22°C° 0 mm 5 m/S 768 mmHg 35%
    13:00 +23°C° 0 mm 6 m/S 767 mmHg 32%
    14:00 +23°C° 0 mm 6 m/S 767 mmHg 33%
    15:00 +23°C° 0 mm 6 m/S 767 mmHg 34%
    16:00 +23°C° 0 mm 6 m/S 766 mmHg 34%
    17:00 +21°C° 0 mm 6 m/S 767 mmHg 39%
    18:00 +19°C° 0 mm 6 m/S 767 mmHg 44%
    19:00 +16°C° 0 mm 5 m/S 767 mmHg 49%
    20:00 +15°C° 0 mm 5 m/S 768 mmHg 50%
    21:00 +14°C° 0 mm 5 m/S 768 mmHg 52%
    22:00 +14°C° 0 mm 5 m/S 768 mmHg 53%
    23:00 +13°C° 0 mm 4 m/S 769 mmHg 54%

    22 März, Freitag

    Zeit Temperatur Niederschläge Wind Luftdruck Luftfeuchtigkeit
    00:00 +13°C° 0 mm 4 m/S 769 mmHg 56%
    01:00 +13°C° 0 mm 4 m/S 769 mmHg 57%
    02:00 +12°C° 0 mm 4 m/S 769 mmHg 58%
    03:00 +12°C° 0 mm 4 m/S 769 mmHg 59%
    04:00 +12°C° 0 mm 4 m/S 769 mmHg 61%
    05:00 +12°C° 0 mm 4 m/S 769 mmHg 61%
    06:00 +12°C° 0 mm 4 m/S 769 mmHg 61%
    07:00 +13°C° 0 mm 4 m/S 769 mmHg 61%
    08:00 +15°C° 0 mm 4 m/S 769 mmHg 54%
    09:00 +18°C° 0 mm 3 m/S 769 mmHg 47%
    10:00 +20°C° 0 mm 3 m/S 769 mmHg 40%
    11:00 +21°C° 0 mm 4 m/S 769 mmHg 38%
    12:00 +22°C° 0 mm 4 m/S 768 mmHg 36%
    13:00 +23°C° 0 mm 5 m/S 768 mmHg 34%
    14:00 +22°C° 0 mm 5 m/S 768 mmHg 37%
    15:00 +22°C° 0 mm 6 m/S 768 mmHg 40%
    16:00 +21°C° 0 mm 7 m/S 768 mmHg 44%
    17:00 +18°C° 0 mm 7 m/S 768 mmHg 53%
    18:00 +16°C° 0 mm 7 m/S 768 mmHg 62%
    19:00 +14°C° 0 mm 7 m/S 768 mmHg 71%
    20:00 +14°C° 0 mm 5 m/S 768 mmHg 68%
    21:00 +14°C° 0 mm 4 m/S 769 mmHg 66%
    22:00 +14°C° 0 mm 3 m/S 769 mmHg 64%
    23:00 +13°C° 0 mm 3 m/S 769 mmHg 62%

    23 März, Samstag

    Zeit Temperatur Niederschläge Wind Luftdruck Luftfeuchtigkeit
    00:00 +14°C° 0 mm 2 m/S 769 mmHg 61%
    01:00 +14°C° 0 mm 2 m/S 768 mmHg 59%
    02:00 +14°C° 0 mm 2 m/S 768 mmHg 59%
    03:00 +13°C° 0 mm 2 m/S 768 mmHg 58%
    04:00 +13°C° 0 mm 2 m/S 768 mmHg 58%
    05:00 +14°C° 0 mm 2 m/S 768 mmHg 58%
    06:00 +14°C° 0 mm 1 m/S 768 mmHg 57%
    07:00 +15°C° 0 mm 1 m/S 768 mmHg 57%
    08:00 +18°C° 0 mm 1 m/S 768 mmHg 51%
    09:00 +20°C° 0 mm 1 m/S 768 mmHg 45%
    10:00 +22°C° 0 mm 1 m/S 768 mmHg 39%
    11:00 +21°C° 0 mm 2 m/S 768 mmHg 39%
    12:00 +22°C° 0 mm 3 m/S 768 mmHg 38%
    13:00 +22°C° 0 mm 4 m/S 767 mmHg 38%
    14:00 +21°C° 0 mm 5 m/S 767 mmHg 41%
    15:00 +21°C° 0 mm 5 m/S 767 mmHg 45%
    16:00 +20°C° 0 mm 5 m/S 766 mmHg 48%
    17:00 +17°C° 0 mm 5 m/S 767 mmHg 55%
    18:00 +15°C° 0 mm 4 m/S 767 mmHg 63%
    19:00 +14°C° 0 mm 4 m/S 767 mmHg 71%
    20:00 +14°C° 0 mm 3 m/S 767 mmHg 70%
    21:00 +14°C° 0 mm 3 m/S 767 mmHg 70%
    22:00 +14°C° 0 mm 2 m/S 768 mmHg 69%
    23:00 +14°C° 0 mm 2 m/S 768 mmHg 70%

    24 März, Sonntag

    Zeit Temperatur Niederschläge Wind Luftdruck Luftfeuchtigkeit
    00:00 +14°C° 0 mm 2 m/S 768 mmHg 71%
    01:00 +13°C° 0 mm 3 m/S 768 mmHg 71%
    02:00 +14°C° 0 mm 2 m/S 767 mmHg 71%
    03:00 +13°C° 0 mm 2 m/S 767 mmHg 71%
    04:00 +13°C° 0 mm 2 m/S 767 mmHg 70%
    05:00 +14°C° 0 mm 2 m/S 767 mmHg 67%
    06:00 +15°C° 0 mm 1 m/S 767 mmHg 64%
    07:00 +16°C° 0 mm 1 m/S 768 mmHg 61%
    08:00 +18°C° 0 mm 1 m/S 768 mmHg 57%
    09:00 +19°C° 0 mm 2 m/S 768 mmHg 52%
    10:00 +21°C° 0 mm 2 m/S 768 mmHg 47%
    11:00 +21°C° 0 mm 3 m/S 767 mmHg 48%
    12:00 +22°C° 0 mm 4 m/S 767 mmHg 49%
    13:00 +22°C° 0 mm 4 m/S 767 mmHg 49%
    14:00 +21°C° 0 mm 4 m/S 766 mmHg 51%
    15:00 +21°C° 0 mm 4 m/S 766 mmHg 53%
    16:00 +20°C° 0 mm 4 m/S 766 mmHg 54%
    17:00 +19°C° 0 mm 3 m/S 766 mmHg 62%
    18:00 +17°C° 0 mm 3 m/S 766 mmHg 70%
    19:00 +14°C° 0 mm 3 m/S 765 mmHg 77%
    20:00 +15°C° 0 mm 2 m/S 766 mmHg 78%
    21:00 +14°C° 0 mm 1 m/S 766 mmHg 78%
    22:00 +14°C° 0 mm 1 m/S 766 mmHg 79%
    23:00 +14°C° 0 mm 1 m/S 765 mmHg 79%
    Mehr zeigen